Weather in Strelka

Russia / Vologda Oblast     60°34′05″N   45°02′34″E
В апреле 2022 года жителям России запретили посещать сайт meteo.paraplan.net по решению Генеральной прокуратуры. Аудитория сайта уменьшилась в 10 раз. Владельцы сайта не видят смысла в поддержке погодного сервера в таких условиях. Сайт будет закрыт в октябре.
temp.,
°C
wind,
m/s
gust,
m/s
humid.,
%
clouds,
%
prec.,
mm/h
press.,
hPa
HPBL,
m
3 october, mon
mon300:00+10wsw3798100 0.1 1006562
03:00+9w1398100 0.1 1008249
06:00+8nne2397100 0.0 1010200
09:00+8ene2495100 0.2 1011202
12:00+10e3587100 0.0 1012461
15:00+10ene4994100 0.5 1012461
18:00+10e41194100 0.1 1012494
21:00+11ese31098100 0.1 1011390
4 october, tue
tue400:00+11sse41390100 0.0 1012522
03:00+11sse4118798 0.0 1013465
06:00+10sse41195100 0.0 1015487
09:00+12s49864 0.0 1017673
12:00+14sse487158 0.0 1017970
15:00+13sse4972100 0.0 1018941
18:00+11sse31080100 0.0 1018449
21:00+10se31187100 0.0 1018456
5 october, wed
wed500:00+9se3109596 0.0 1018373
03:00+8se41097100 0.0 1017404
06:00+8se4108718 0.0 1017523
09:00+9sse41188100 0.0 1016609
12:00+11sse4982100 0.0 1015783
15:00+11sse4880100 0.0 1015844
18:00+9se3995100 2.5 1014511
21:00+9se41192100 3.8 1013699
6 october, thu
thu600:00+8se2597100 0.7 1012238
03:00+8s129678 2.6 101166
06:00+5ssw229624 0.1 101124
09:00+9ssw118349 0.2 1011158
12:00+9ssw1384100 0.1 1011230
15:00+9ssw248276 0.3 1010551
18:00+6ssw24945 0.0 101067
21:00+5ssw39955 0.0 1009220
7 october, fri
fri700:00+5s31194100 0.0 1007376
03:00+5s41293100 1.5 1004684
06:00+6sw41196100 2.3 1003766
09:00+7wsw41190100 2.3 1002659
12:00+8w4118698 0.4 1003858
15:00+9w598125 0.8 10021034
18:00+7w4109054 0.2 1004445
21:00+6w4129531 0.2 1006527